Regional Weather Roundup
Issued by NWS Green Bay, WI

Home | Current Version | Previous Version | Text Only | Print | Product List | Glossary Off
Versions: 1 2 3 4 5 6 7 8 9 10 11 12 13 14 15 16 17 18 19 20 21 22 23 24 25 26 27 28 29 30 31 32 33 34 35 36 37 38 39 40 41 42 43 44 45 46 47 48 49 50

000
ASUS43 KGRB 190711
RWRGRB

NORTH-CENTRAL AND NORTHEAST WISCONSIN REGIONAL WEATHER ROUNDUP
NATIONAL WEATHER SERVICE GREEN BAY WI
100 AM CST THU JAN 19 2017

WIZ005-009-010>012-018-019-190800-
NORTH CENTRAL WISCONSIN

CITY           SKY/WX    TMP DP  RH WIND       PRES   REMARKS
IRONWOOD       CLOUDY    30  29  96 S3        29.82S
MANITOWISH WTR CLOUDY    31  31 100 SW8       29.83R FOG
ARBOR VITAE    CLOUDY    32  31  95 S3        29.84S FOG
EAGLE RIVER    CLOUDY    30  30 100 SW6       29.84S FOG
LAND O LAKES   CLOUDY    27  27 100 CALM      29.85R FOG
RHINELANDER    FOG       30  30 100 SW8       29.86S VSB 1
PHILLIPS       CLOUDY    28  28 100 SW7       29.85R FOG
ANTIGO         CLOUDY    26  26 100 SW5       29.88R FOG
TOMAHAWK       CLOUDY    28  27  96 CALM      29.87S FOG
MERRILL        CLOUDY    29  29 100 SW5         N/A  FOG
$$

WIZ013-073-190800-
NORTHEAST WISCONSIN

CITY           SKY/WX    TMP DP  RH WIND       PRES   REMARKS
IRON MOUNTAIN  CLOUDY    21  19  92 CALM      29.86R FOG
MARINETTE      NOT AVBL
OCONTO         CLOUDY    30  28  92 SW3       29.93S
$$

WIZ017-030-035>037-045-190800-
CENTRAL WISCONSIN

CITY           SKY/WX    TMP DP  RH WIND       PRES   REMARKS
MEDFORD        FOG       28  27  99 S8        29.87S VSB 1/4
WAUSAU         CLOUDY    29  29 100 S3        29.89S FOG
MOSINEE        CLOUDY    28  28 100 SW7       29.91S FOG
MARSHFIELD     FOG       30  28  92 SW7       29.89S VSB 1/2
WISC RAPIDS    CLOUDY    31  31 100 SW12      29.93F FOG
STEVENS POINT  CLOUDY    28  28 100 SW9       29.92S FOG
WAUPACA        CLOUDY    32  31  94 CALM      29.94S FOG
SHAWANO        CLOUDY    32  29  90 SW3       29.93R
CLINTONVILLE   CLOUDY    30  28  93 SW5       29.92R FOG
WAUTOMA        CLOUDY    32  31  96 SW6       29.95S
$$

WIZ038-039-048-051-190800-
FOX VALLEY

CITY           SKY/WX    TMP DP  RH WIND       PRES   REMARKS
NWS GREEN BAY  CLOUDY    33  31  92 SW6       29.94R
APPLETON       CLOUDY    32  32 100 SW13      29.92S FOG
OSHKOSH        CLOUDY    32  30  92 SW9       29.95S FOG
FOND DU LAC    CLOUDY    33  29  85 SW9G17    29.96S FOG
$$

WIZ022-050-052-190800-
EAST CENTRAL WISCONSIN

CITY           SKY/WX    TMP DP  RH WIND       PRES   REMARKS
EPHRAIM        FAIR      32  31  95 SW8       29.90S
WASHINGTON ISL FAIR      32  29  90 SW8       29.90S
STURGEON BAY   CLOUDY    31  29  92 SW9       29.93S
MANITOWOC      CLOUDY    30  28  92 MISG      29.97R FOG
SHEBOYGAN      CLEAR     32  29  88 SW9       29.95F FOG
$$

LMZ563-521-522-541>543-190800-
LAKESHORE

STATION/POSITION TIME  TEMP    WIND        PRES    VSBY  WAVE
                       AIR SEA DIR/SP/G                  HT/PER
                 (UTC) (F)     (DEG/KT/KT) (MB)    (MI)  (FT/S)
SHEBOYGAN LKSHOR 0700   33     230/ 11/ 12 1014.9F
KEWAUNEE LKSHORE 0648   32     200/  5/  6 1013.8R
NORTHPORT PIER   0640   31     200/  3/  6 1012.9S
SISTER BAY LKSHO 0650   34     220/ 13/ 16   N/A
MENOMINEE LKSHOR 0648          200/  8/ 11 1012.5R
$$




USA.gov is the U.S. government's official web portal to all federal, state and local government web resources and services.